SCP
-0 0 0 0 0 0 0 0 0 0 0 0 0 0 0 0 0 0 0 0 0 -0 -0 0 0 0 0 0 -0 0 -0 -0 -0 -0 -0 -0 -0 -0 -0 -0 -0 -0 -0 -0 -0 -0 -0 -0 -0
0 0 0 0 0 0 0 0 0 0 0 0 0 0 0 0 0 0 0 0 0 -0 -0 0 0 0 0 0 0 0 0 0 -0 -0 -0 -0 -0 -0 -0 -0 -0 -0 -0 -0 -0 -0 -0 -0 -0
-0 -0 0 0 0 0 0 -0 0 0 0 0 0 0 0 0 0 0 0 0 0 0 0 0 0 0 0 0 0 0 0 0 0 0 0 0 0 0 0 0 0 0 0 0 0 -0 0 0 0
0 0 0 0 0 0 0 0 0 0 0 0 0 0 0 0 0 0 0 -0 0 0 0 0 0 0 0 0 0 0 0 0 0 0 0 0 0 0 0 0 0 0 0 0 0 0 0 0 0
0 0 0 0 0 0 0 0 0 0 0 0 0 0 0 0 0 0 0 0 0 0 0 0 0 0 0 0 0 0 0 0 0 0 0 0 0 0 0 0 0 0 0 0 0 0 0 0 0
0 0 0 0 0 0 0 0 0 0 0 0 0 0 0 0 0 0 -0 -0 0 0 0 0 0 0 0 0 0 0 0 0 0 0 0 0 0 0 0 0 0 0 0 0 0 0 0 0 0
0 0 0 0 0 0 0 0 0 0 0 0 0 0 0 0 0 0 -0 -0 0 0 0 0 0 0 0 0 0 0 0 0 0 0 0 0 0 0 0 0 0 0 0 0 0 0 0 0 0
0 0 0 0 0 0 0 0 0 0 0 0 0 0 0 0 0 0 0 0 0 0 0 0 0 0 0 0 0 0 0 0 0 0 0 0 0 0 0 0 0 0 0 0 0 0 0 0 0
0 0 0 0 0 0 0 0 0 0 0 0 0 0 0 0 0 0 0 0 0 0 0 0 0 0 0 0 0 0 0 0 0 0 0 0 0 0 0 0 0 0 0 0 0 0 0 0 0
0 0 0 0 0 0 0 0 0 0 0 0 0 0 0 0 0 0 0 0 0 0 0 0 0 0 0 0 0 0 0 0 0 0 0 0 0 0 0 0 0 0 0 0 0 0 0 0 0
0 0 0 0 0 0 0 0 0 0 0 0 0 0 0 0 0 0 0 0 0 0 0 0 0 0 0 0 0 0 0 0 0 0 0 0 0 0 0 0 0 0 0 0 0 0 0 0 0
0 0 0 0 0 0 0 0 0 0 0 0 0 0 0 0 0 0 0 0 0 0 0 0 0 0 0 0 0 0 0 0 0 0 0 0 0 0 0 0 0 0 0 0 0 0 0 0 0
0 0 0 0 0 0 0 0 0 0 0 0 0 0 0 0 0 0 0 0 0 0 0 0 0 0 0 0 0 0 0 0 0 0 0 0 0 0 0 0 0 0 0 0 0 0 0 0 0
0 0 0 0 0 0 0 0 0 0 0 0 0 0 0 0 0 0 0 0 0 0 0 0 0 0 0 0 0 0 0 0 0 0 0 0 0 0 0 0 0 0 0 0 0 0 0 0 0
0 0 0 0 0 0 0 0 0 0 0 0 0 0 0 0 0 0 0 0 0 0 0 0 0 0 0 0 0 0 0 0 0 0 0 0 0 0 0 0 0 0 0 0 0 0 0 0 0
0 0 0 0 0 0 0 0 0 0 0 0 0 0 0 0 0 0 0 0 0 0 0 0 0 0 0 0 0 0 0 0 0 0 0 0 0 0 0 0 0 0 0 0 0 0 0 0 0
0 0 0 0 0 0 0 0 0 0 0 0 0 0 0 0 0 0 0 0 0 0 0 0 0 0 0 0 0 0 0 0 0 0 0 0 0 0 0 0 0 0 0 0 0 0 0 0 0
0 0 0 0 0 0 0 0 0 0 0 0 0 0 0 0 0 0 0 0 0 0 0 0 0 0 0 0 0 0 0 0 0 0 0 0 0 0 0 0 0 0 0 0 0 0 0 0 0
0 0 0 0 0 0 0 0 0 0 0 -0 -0 0 0 0 0 0 0 0 0 0 0 0 0 0 0 0 0 0 0 0 0 0 0 0 0 0 0 0 0 0 0 0 0 0 0 0 0
0 0 0 0 0 0 0 0 0 0 -0 -0 -0 0 0 0 0 0 0 0 0 0 0 0 0 0 0 0 0 0 0 0 0 0 0 0 0 0 0 0 0 0 0 0 0 0 0 0 0
0 0 0 0 0 0 0 0 0 0 -0 0 0 0 0 0 0 0 0 0 0 0 0 0 0 0 0 0 0 0 0 0 0 0 0 0 0 0 0 0 0 0 0 0 0 0 0 0 0
0 0 0 0 0 0 0 0 0 -0 0 0 0 0 0 0 0 0 0 0 0 0 0 0 0 0 0 0 0 0 0 0 0 0 0 0 0 0 0 0 0 0 0 0 0 0 0 0 0
0 0 0 0 0 0 -0 0 0 0 0 0 0 0 0 0 0 0 0 0 0 0 0 0 0 0 0 0 0 0 0 0 0 0 0 0 0 0 0 0 0 0 0 0 0 0 0 0 0
0 0 0 -0 0 0 -0 0 0 0 0 0 0 0 0 0 0 0 0 0 0 0 0 0 0 0 0 0 0 0 0 0 0 0 0 0 0 0 0 0 0 0 0 0 0 0 0 0 0
0 0 0 0 0 0 0 0 0 0 0 0 0 0 0 0 -0 -0 0 0 0 0 0 0 0 0 0 0 0 0 0 0 0 0 0 0 0 0 0 0 0 0 0 0 0 0 0 0 0
0 0 0 0 0 0 0 0 0 0 0 0 0 0 0 0 0 0 0 0 0 0 0 0 0 0 0 0 0 0 0 0 0 0 0 0 0 0 0 0 0 0 0 0 0 0 0 0 0
0 0 0 0 0 0 0 0 0 0 0 0 0 0 0 0 0 0 0 0 0 0 0 0 0 0 0 0 0 0 0 0 0 0 0 0 0 0 0 0 0 0 0 0 0 0 0 0 0
0 0 0 0 0 0 0 0 0 0 0 -0 0 -0 0 0 0 0 0 -0 0 0 0 0 0 0 0 0 0 0 0 0 0 0 0 0 0 0 0 0 0 0 0 0 0 0 0 0 0
0 0 0 0 0 0 0 0 0 0 -0 0 -0 0 0 0 0 0 -0 -0 0 0 0 0 0 0 0 0 0 0 0 0 0 0 0 0 0 0 0 0 0 0 0 0 0 0 0 0 0
0 0 0 0 0 0 0 0 0 0 0 -0 0 0 0 0 0 0 -0 0 0 0 0 0 0 0 0 0 0 0 0 0 0 0 0 0 0 0 0 0 0 0 0 0 0 0 0 0 0
Wind_Speed_500mb
16 16 19 16 5 7 13 16 19 8 6 21 13 13 21 25 10 3 24 18 35 37 35 48 43 39 35 32 29 29 26 24 25 27 23 16 19 22 23 25 25 25 25 24 25 26 26 26 27
14 15 17 11 6 11 13 23 19 11 5 17 9 10 15 11 23 8 7 22 38 35 34 52 47 42 39 35 32 31 28 24 21 27 24 21 22 24 23 24 24 24 24 23 25 26 26 25 26
18 16 16 7 10 18 16 21 13 21 23 16 10 8 8 8 15 7 8 18 33 40 28 53 49 46 41 37 35 31 31 28 26 26 28 25 26 26 24 25 23 24 24 23 25 26 26 26 26
10 13 15 10 24 23 15 14 17 14 24 4 10 15 7 4 6 4 5 25 30 38 27 43 49 46 44 41 36 31 34 30 29 28 31 29 26 28 27 27 28 26 24 23 25 26 27 26 24
11 12 11 16 24 27 23 31 3 6 14 24 4 6 22 2 1 7 5 17 32 38 33 38 43 43 43 42 39 35 32 32 32 36 33 34 33 31 30 29 28 27 24 22 19 26 26 25 24
13 15 13 21 26 28 27 36 14 13 27 29 31 23 17 6 11 5 4 12 27 35 40 38 41 49 44 43 40 37 34 35 35 35 38 34 33 31 30 32 32 27 28 24 21 24 21 22 25
18 12 21 27 27 28 30 42 8 9 24 30 22 14 12 13 4 6 6 10 31 32 40 43 44 52 46 47 43 38 36 37 36 40 40 37 33 32 29 31 34 27 29 26 23 24 20 18 25
20 11 24 26 25 31 30 42 36 25 22 25 32 4 13 3 11 16 7 13 41 38 45 47 39 57 53 51 48 40 36 37 37 42 40 38 33 32 33 34 36 34 30 29 27 24 19 19 25
4 8 14 25 26 27 26 29 35 26 28 29 24 26 29 17 29 33 18 17 26 53 52 57 51 51 55 54 53 47 42 39 39 40 40 37 37 35 34 38 38 40 33 29 28 26 23 19 29
13 9 13 17 15 23 34 34 38 35 40 41 41 38 37 41 34 31 30 27 25 40 56 56 55 52 54 57 59 56 51 48 46 44 42 40 40 40 38 42 44 39 35 30 31 27 22 19 28
6 11 24 29 25 26 28 37 41 38 27 42 48 47 55 54 32 30 27 32 36 33 57 58 56 61 61 62 62 61 61 57 54 51 47 43 41 37 40 45 46 44 36 37 34 29 21 11 30
9 18 24 19 27 27 26 40 34 50 52 55 64 67 66 66 64 43 33 35 40 46 45 58 59 68 68 65 65 58 64 62 60 56 53 52 45 42 43 43 48 47 40 33 33 28 21 20 32
17 14 23 25 30 36 35 31 34 48 55 49 46 45 53 65 66 68 63 56 52 54 57 56 64 71 75 74 72 65 63 66 64 60 58 55 51 50 47 45 51 53 44 38 37 37 35 32 37
15 23 31 24 30 27 22 28 35 41 49 40 29 30 36 45 51 55 56 59 55 57 62 64 62 70 80 87 85 82 73 69 65 65 64 58 59 55 51 49 55 47 48 45 42 42 43 36 36
15 14 20 12 6 11 24 17 16 7 15 29 39 45 56 61 60 63 59 69 66 60 51 72 74 65 84 84 89 86 75 71 69 69 66 64 66 61 57 54 54 49 57 52 44 40 38 38 39
8 7 12 7 10 3 10 12 17 50 49 51 61 67 62 58 61 62 66 67 70 76 65 42 71 84 71 85 88 89 84 81 78 73 71 69 70 62 58 56 65 61 66 57 53 46 42 42 42
8 7 18 17 4 15 14 33 17 57 60 52 58 66 68 67 63 60 61 63 64 65 72 62 55 74 83 74 88 93 91 87 85 81 80 75 71 69 66 67 70 69 55 54 53 51 47 45 42
12 11 13 20 19 30 31 43 32 51 60 62 64 67 68 63 57 52 48 50 58 64 63 66 69 65 80 84 80 100 99 88 90 90 85 81 76 79 72 74 67 70 63 56 53 53 50 44 48
14 18 21 26 27 28 22 46 43 45 61 61 61 50 52 51 50 46 46 44 47 56 72 72 60 64 70 90 90 96 99 87 88 94 88 87 81 91 87 80 69 70 64 59 58 58 53 52 52
18 20 19 20 11 27 29 52 50 37 38 40 55 52 52 51 40 39 34 33 35 43 51 59 66 63 65 84 101 100 109 100 92 95 92 96 91 97 96 84 79 73 69 66 67 65 60 54 54
18 16 13 19 24 21 21 25 6 24 44 45 53 66 47 18 27 32 32 32 36 36 37 45 57 74 65 69 85 108 105 99 98 96 91 92 100 97 92 83 79 75 69 69 67 66 63 60 58
13 11 19 27 19 4 14 16 8 20 18 23 50 33 34 27 27 35 38 46 46 45 46 51 54 59 67 71 78 82 101 105 95 103 100 104 105 98 91 86 78 73 73 70 68 66 62 59 62
14 20 29 32 24 12 11 7 14 39 29 20 25 38 40 38 36 37 45 50 64 67 69 66 68 69 59 75 80 96 108 99 113 105 108 114 107 96 88 88 83 78 74 71 70 67 62 57 54
19 19 37 27 4 1 16 11 28 25 20 25 21 49 33 44 46 50 62 86 83 87 88 76 75 79 91 79 87 100 99 111 104 120 118 116 109 97 92 89 86 77 76 71 68 65 62 57 49
1 13 9 10 5 11 17 18 21 29 28 41 29 33 53 57 69 82 83 81 87 91 96 95 97 109 105 100 91 102 114 109 132 133 131 120 112 105 100 91 86 83 79 73 69 64 55 48 40
6 2 4 9 7 30 27 12 11 22 42 23 40 54 57 65 66 73 95 106 107 103 97 92 84 95 99 97 92 95 109 102 124 145 135 124 118 117 109 103 94 86 81 73 64 53 50 49 47
6 6 3 6 14 12 10 18 33 30 12 18 38 42 58 61 71 104 100 93 93 90 96 96 98 97 94 98 102 92 110 97 106 141 128 120 125 122 110 101 97 91 83 71 64 59 56 50 48
11 9 7 2 9 12 13 31 23 16 13 29 22 55 68 57 79 113 102 100 97 96 92 90 92 102 101 104 101 95 106 98 101 131 132 123 125 122 112 104 96 88 79 71 67 66 60 61 57
5 5 8 9 6 7 10 29 8 10 31 18 42 62 73 63 98 97 104 100 94 90 87 87 84 89 100 96 94 90 97 107 98 119 117 119 120 128 114 105 97 88 80 75 70 65 67 70 66
6 9 8 7 15 11 12 35 34 35 14 49 47 76 60 68 92 101 103 95 86 82 81 75 68 66 74 83 85 91 99 105 101 114 123 113 118 121 116 106 98 90 83 78 74 79 78 71 62
Wind_Direction_500mb
323 341 331 300 257 217 259 260 251 286 29 61 61 354 343 342 343 75 143 195 175 211 186 184 186 187 188 182 179 182 183 186 166 155 160 166 155 144 137 135 133 130 125 124 121 119 116 115 114
323 335 315 272 246 267 258 239 246 156 39 56 359 306 279 281 64 80 112 185 189 215 194 187 187 189 192 191 191 187 190 195 196 166 166 167 156 147 142 143 137 128 130 129 124 123 120 119 119
306 315 292 229 215 250 273 294 26 7 37 26 322 242 288 34 60 75 266 169 192 206 205 191 190 192 196 200 202 201 197 201 201 189 169 166 162 153 152 143 136 140 126 129 130 130 126 122 116
313 264 250 247 262 270 277 306 29 351 324 157 304 319 110 288 121 205 14 156 180 206 218 199 193 198 199 200 202 198 193 198 202 188 173 168 163 157 161 150 150 142 137 129 127 128 124 119 114
264 263 256 259 253 260 270 291 43 268 301 295 127 278 320 138 122 345 329 174 177 192 222 209 204 198 205 203 197 195 197 197 198 179 172 172 170 167 160 163 153 146 138 130 123 134 120 115 109
255 227 250 252 258 259 253 252 265 272 281 288 296 273 270 209 102 321 2 167 181 189 216 219 215 208 207 207 204 202 203 203 201 181 180 178 178 173 168 164 156 137 131 141 141 126 132 128 122
248 277 250 260 268 280 292 303 246 241 262 290 311 338 314 132 164 32 0 186 180 199 215 222 225 213 208 210 210 212 210 207 203 186 185 185 185 181 179 162 145 150 147 155 152 141 139 130 126
254 258 260 266 277 278 291 288 293 307 278 278 287 274 256 57 275 305 291 241 177 202 216 228 229 213 208 211 211 214 215 209 207 191 193 189 190 189 167 156 154 159 168 170 159 159 151 143 136
234 252 254 262 271 279 331 357 333 282 264 272 276 281 266 283 288 290 277 278 210 197 213 226 230 216 212 212 211 214 217 215 213 210 199 195 191 189 174 165 169 168 176 177 173 168 165 161 148
213 225 252 264 7 359 348 341 331 332 319 309 302 288 283 263 257 265 271 271 244 219 215 221 224 213 213 214 215 216 214 213 215 216 203 200 195 186 177 178 177 181 181 182 189 174 178 180 158
282 249 285 307 0 354 328 313 316 311 290 287 293 310 297 296 279 242 255 268 267 252 220 225 224 221 212 214 220 219 214 214 215 218 210 205 193 191 191 189 184 184 186 191 185 185 189 191 157
317 276 291 323 322 326 307 299 287 281 280 283 288 293 295 292 291 280 264 251 255 254 250 227 229 220 215 215 218 218 220 218 216 215 212 203 189 197 196 196 192 185 196 200 186 192 192 164 158
250 297 332 318 305 298 296 298 285 282 281 281 282 285 286 281 281 281 283 275 260 251 250 253 231 229 218 213 211 218 221 218 215 213 213 203 190 198 201 201 197 192 194 199 199 191 185 179 173
353 309 295 294 283 300 292 307 304 274 281 289 287 288 296 289 285 281 274 272 270 265 247 248 245 231 227 225 218 224 221 223 217 213 214 205 194 200 206 198 195 195 200 203 205 201 204 206 196
279 285 268 236 212 271 350 272 224 254 340 306 292 292 290 282 278 274 275 273 263 264 263 245 243 233 227 224 226 223 220 220 218 215 213 207 200 201 207 203 198 202 201 204 204 203 203 198 196
262 271 352 160 22 297 2 272 293 319 314 300 288 282 281 280 277 273 274 270 267 260 266 266 245 242 235 232 232 227 217 213 217 215 210 210 203 200 203 202 199 202 207 208 208 209 207 200 201
236 330 329 325 241 352 350 295 281 302 293 294 289 286 286 286 281 276 273 269 268 264 266 266 259 243 236 235 230 224 216 210 213 215 210 209 204 200 205 208 200 206 209 209 210 208 210 202 195
312 315 314 302 323 320 304 281 292 296 294 285 288 289 285 284 284 285 277 273 266 264 262 262 262 257 240 238 237 218 215 209 209 216 213 211 203 198 206 209 208 206 204 210 212 210 203 206 199
305 288 287 288 297 299 285 291 291 291 287 283 280 289 299 295 295 291 285 277 273 267 263 263 261 259 249 235 228 226 216 209 206 213 216 209 203 201 206 211 208 203 207 214 208 207 207 198 207
275 276 276 272 294 315 295 293 285 276 270 288 289 287 283 277 287 296 287 282 275 274 270 267 267 259 255 245 234 232 222 217 206 209 211 207 208 205 209 211 203 204 205 209 209 209 203 207 210
281 274 297 291 318 277 342 286 277 321 288 276 290 290 289 303 288 299 296 291 291 290 290 286 275 261 255 258 238 215 224 221 206 203 200 202 207 209 213 210 205 206 207 212 212 214 216 215 203
292 357 322 305 327 275 60 292 266 259 272 289 300 335 330 314 293 289 281 285 285 290 286 277 276 276 267 254 253 224 210 204 203 201 201 205 209 210 212 208 205 209 211 213 215 216 219 219 206
250 341 301 283 278 305 255 246 271 301 302 307 326 320 322 320 311 291 294 288 289 283 283 286 277 270 261 259 253 248 216 208 207 201 202 205 210 209 206 205 206 211 213 214 215 214 216 213 217
286 293 287 277 196 270 239 167 295 304 307 310 303 314 338 334 329 320 310 304 295 288 285 283 273 268 270 264 255 248 236 207 199 198 203 207 208 207 203 205 208 213 213 213 213 212 214 214 211
145 332 322 348 341 232 324 330 254 282 298 313 301 1 340 327 319 314 309 303 293 287 281 275 267 271 266 265 250 245 244 212 207 205 208 214 207 203 203 205 207 210 212 212 216 205 215 213 209
319 312 183 276 300 297 296 239 256 307 301 321 355 337 332 318 316 308 307 300 297 292 285 281 270 263 257 255 248 241 237 231 206 212 218 218 210 204 205 203 205 208 209 210 208 200 199 204 200
99 202 353 305 249 270 242 266 308 280 296 345 332 327 313 318 312 319 312 303 300 292 286 278 271 262 254 246 242 235 237 226 209 207 216 214 208 205 203 204 201 203 203 202 199 194 189 192 190
223 14 36 292 302 300 284 295 251 302 316 317 316 320 322 314 319 321 312 307 303 297 291 283 270 263 256 248 241 228 229 219 211 204 205 212 209 204 198 199 196 196 195 196 198 190 188 192 192
161 235 200 217 210 250 297 289 208 285 302 308 323 320 320 323 324 314 313 310 307 302 298 295 287 271 254 239 233 220 215 210 204 206 211 206 205 201 197 196 195 194 195 197 201 198 191 199 207
268 232 253 152 264 240 297 271 288 268 283 334 313 315 323 324 321 318 314 313 311 309 314 307 290 279 240 227 210 211 202 200 201 204 212 204 203 195 196 194 194 193 194 194 196 195 197 207 202
Wind_Speed_850mb
16 16 19 16 5 7 13 16 19 8 6 21 13 13 21 25 10 3 24 18 35 37 35 48 43 39 35 32 29 29 26 24 25 27 23 16 19 22 23 25 25 25 25 24 25 26 26 26 27
14 15 17 11 6 11 13 23 19 11 5 17 9 10 15 11 23 8 7 22 38 35 34 52 47 42 39 35 32 31 28 24 21 27 24 21 22 24 23 24 24 24 24 23 25 26 26 25 26
18 16 16 7 10 18 16 21 13 21 23 16 10 8 8 8 15 7 8 18 33 40 28 53 49 46 41 37 35 31 31 28 26 26 28 25 26 26 24 25 23 24 24 23 25 26 26 26 26
10 13 15 10 24 23 15 14 17 14 24 4 10 15 7 4 6 4 5 25 30 38 27 43 49 46 44 41 36 31 34 30 29 28 31 29 26 28 27 27 28 26 24 23 25 26 27 26 24
11 12 11 16 24 27 23 31 3 6 14 24 4 6 22 2 1 7 5 17 32 38 33 38 43 43 43 42 39 35 32 32 32 36 33 34 33 31 30 29 28 27 24 22 19 26 26 25 24
13 15 13 21 26 28 27 36 14 13 27 29 31 23 17 6 11 5 4 12 27 35 40 38 41 49 44 43 40 37 34 35 35 35 38 34 33 31 30 32 32 27 28 24 21 24 21 22 25
18 12 21 27 27 28 30 42 8 9 24 30 22 14 12 13 4 6 6 10 31 32 40 43 44 52 46 47 43 38 36 37 36 40 40 37 33 32 29 31 34 27 29 26 23 24 20 18 25
20 11 24 26 25 31 30 42 36 25 22 25 32 4 13 3 11 16 7 13 41 38 45 47 39 57 53 51 48 40 36 37 37 42 40 38 33 32 33 34 36 34 30 29 27 24 19 19 25
4 8 14 25 26 27 26 29 35 26 28 29 24 26 29 17 29 33 18 17 26 53 52 57 51 51 55 54 53 47 42 39 39 40 40 37 37 35 34 38 38 40 33 29 28 26 23 19 29
13 9 13 17 15 23 34 34 38 35 40 41 41 38 37 41 34 31 30 27 25 40 56 56 55 52 54 57 59 56 51 48 46 44 42 40 40 40 38 42 44 39 35 30 31 27 22 19 28
6 11 24 29 25 26 28 37 41 38 27 42 48 47 55 54 32 30 27 32 36 33 57 58 56 61 61 62 62 61 61 57 54 51 47 43 41 37 40 45 46 44 36 37 34 29 21 11 30
9 18 24 19 27 27 26 40 34 50 52 55 64 67 66 66 64 43 33 35 40 46 45 58 59 68 68 65 65 58 64 62 60 56 53 52 45 42 43 43 48 47 40 33 33 28 21 20 32
17 14 23 25 30 36 35 31 34 48 55 49 46 45 53 65 66 68 63 56 52 54 57 56 64 71 75 74 72 65 63 66 64 60 58 55 51 50 47 45 51 53 44 38 37 37 35 32 37
15 23 31 24 30 27 22 28 35 41 49 40 29 30 36 45 51 55 56 59 55 57 62 64 62 70 80 87 85 82 73 69 65 65 64 58 59 55 51 49 55 47 48 45 42 42 43 36 36
15 14 20 12 6 11 24 17 16 7 15 29 39 45 56 61 60 63 59 69 66 60 51 72 74 65 84 84 89 86 75 71 69 69 66 64 66 61 57 54 54 49 57 52 44 40 38 38 39
8 7 12 7 10 3 10 12 17 50 49 51 61 67 62 58 61 62 66 67 70 76 65 42 71 84 71 85 88 89 84 81 78 73 71 69 70 62 58 56 65 61 66 57 53 46 42 42 42
8 7 18 17 4 15 14 33 17 57 60 52 58 66 68 67 63 60 61 63 64 65 72 62 55 74 83 74 88 93 91 87 85 81 80 75 71 69 66 67 70 69 55 54 53 51 47 45 42
12 11 13 20 19 30 31 43 32 51 60 62 64 67 68 63 57 52 48 50 58 64 63 66 69 65 80 84 80 100 99 88 90 90 85 81 76 79 72 74 67 70 63 56 53 53 50 44 48
14 18 21 26 27 28 22 46 43 45 61 61 61 50 52 51 50 46 46 44 47 56 72 72 60 64 70 90 90 96 99 87 88 94 88 87 81 91 87 80 69 70 64 59 58 58 53 52 52
18 20 19 20 11 27 29 52 50 37 38 40 55 52 52 51 40 39 34 33 35 43 51 59 66 63 65 84 101 100 109 100 92 95 92 96 91 97 96 84 79 73 69 66 67 65 60 54 54
18 16 13 19 24 21 21 25 6 24 44 45 53 66 47 18 27 32 32 32 36 36 37 45 57 74 65 69 85 108 105 99 98 96 91 92 100 97 92 83 79 75 69 69 67 66 63 60 58
13 11 19 27 19 4 14 16 8 20 18 23 50 33 34 27 27 35 38 46 46 45 46 51 54 59 67 71 78 82 101 105 95 103 100 104 105 98 91 86 78 73 73 70 68 66 62 59 62
14 20 29 32 24 12 11 7 14 39 29 20 25 38 40 38 36 37 45 50 64 67 69 66 68 69 59 75 80 96 108 99 113 105 108 114 107 96 88 88 83 78 74 71 70 67 62 57 54
19 19 37 27 4 1 16 11 28 25 20 25 21 49 33 44 46 50 62 86 83 87 88 76 75 79 91 79 87 100 99 111 104 120 118 116 109 97 92 89 86 77 76 71 68 65 62 57 49
1 13 9 10 5 11 17 18 21 29 28 41 29 33 53 57 69 82 83 81 87 91 96 95 97 109 105 100 91 102 114 109 132 133 131 120 112 105 100 91 86 83 79 73 69 64 55 48 40
6 2 4 9 7 30 27 12 11 22 42 23 40 54 57 65 66 73 95 106 107 103 97 92 84 95 99 97 92 95 109 102 124 145 135 124 118 117 109 103 94 86 81 73 64 53 50 49 47
6 6 3 6 14 12 10 18 33 30 12 18 38 42 58 61 71 104 100 93 93 90 96 96 98 97 94 98 102 92 110 97 106 141 128 120 125 122 110 101 97 91 83 71 64 59 56 50 48
11 9 7 2 9 12 13 31 23 16 13 29 22 55 68 57 79 113 102 100 97 96 92 90 92 102 101 104 101 95 106 98 101 131 132 123 125 122 112 104 96 88 79 71 67 66 60 61 57
5 5 8 9 6 7 10 29 8 10 31 18 42 62 73 63 98 97 104 100 94 90 87 87 84 89 100 96 94 90 97 107 98 119 117 119 120 128 114 105 97 88 80 75 70 65 67 70 66
6 9 8 7 15 11 12 35 34 35 14 49 47 76 60 68 92 101 103 95 86 82 81 75 68 66 74 83 85 91 99 105 101 114 123 113 118 121 116 106 98 90 83 78 74 79 78 71 62
Wind_Direction_850mb
323 341 331 300 257 217 259 260 251 286 29 61 61 354 343 342 343 75 143 195 175 211 186 184 186 187 188 182 179 182 183 186 166 155 160 166 155 144 137 135 133 130 125 124 121 119 116 115 114
323 335 315 272 246 267 258 239 246 156 39 56 359 306 279 281 64 80 112 185 189 215 194 187 187 189 192 191 191 187 190 195 196 166 166 167 156 147 142 143 137 128 130 129 124 123 120 119 119
306 315 292 229 215 250 273 294 26 7 37 26 322 242 288 34 60 75 266 169 192 206 205 191 190 192 196 200 202 201 197 201 201 189 169 166 162 153 152 143 136 140 126 129 130 130 126 122 116
313 264 250 247 262 270 277 306 29 351 324 157 304 319 110 288 121 205 14 156 180 206 218 199 193 198 199 200 202 198 193 198 202 188 173 168 163 157 161 150 150 142 137 129 127 128 124 119 114
264 263 256 259 253 260 270 291 43 268 301 295 127 278 320 138 122 345 329 174 177 192 222 209 204 198 205 203 197 195 197 197 198 179 172 172 170 167 160 163 153 146 138 130 123 134 120 115 109
255 227 250 252 258 259 253 252 265 272 281 288 296 273 270 209 102 321 2 167 181 189 216 219 215 208 207 207 204 202 203 203 201 181 180 178 178 173 168 164 156 137 131 141 141 126 132 128 122
248 277 250 260 268 280 292 303 246 241 262 290 311 338 314 132 164 32 0 186 180 199 215 222 225 213 208 210 210 212 210 207 203 186 185 185 185 181 179 162 145 150 147 155 152 141 139 130 126
254 258 260 266 277 278 291 288 293 307 278 278 287 274 256 57 275 305 291 241 177 202 216 228 229 213 208 211 211 214 215 209 207 191 193 189 190 189 167 156 154 159 168 170 159 159 151 143 136
234 252 254 262 271 279 331 357 333 282 264 272 276 281 266 283 288 290 277 278 210 197 213 226 230 216 212 212 211 214 217 215 213 210 199 195 191 189 174 165 169 168 176 177 173 168 165 161 148
213 225 252 264 7 359 348 341 331 332 319 309 302 288 283 263 257 265 271 271 244 219 215 221 224 213 213 214 215 216 214 213 215 216 203 200 195 186 177 178 177 181 181 182 189 174 178 180 158
282 249 285 307 0 354 328 313 316 311 290 287 293 310 297 296 279 242 255 268 267 252 220 225 224 221 212 214 220 219 214 214 215 218 210 205 193 191 191 189 184 184 186 191 185 185 189 191 157
317 276 291 323 322 326 307 299 287 281 280 283 288 293 295 292 291 280 264 251 255 254 250 227 229 220 215 215 218 218 220 218 216 215 212 203 189 197 196 196 192 185 196 200 186 192 192 164 158
250 297 332 318 305 298 296 298 285 282 281 281 282 285 286 281 281 281 283 275 260 251 250 253 231 229 218 213 211 218 221 218 215 213 213 203 190 198 201 201 197 192 194 199 199 191 185 179 173
353 309 295 294 283 300 292 307 304 274 281 289 287 288 296 289 285 281 274 272 270 265 247 248 245 231 227 225 218 224 221 223 217 213 214 205 194 200 206 198 195 195 200 203 205 201 204 206 196
279 285 268 236 212 271 350 272 224 254 340 306 292 292 290 282 278 274 275 273 263 264 263 245 243 233 227 224 226 223 220 220 218 215 213 207 200 201 207 203 198 202 201 204 204 203 203 198 196
262 271 352 160 22 297 2 272 293 319 314 300 288 282 281 280 277 273 274 270 267 260 266 266 245 242 235 232 232 227 217 213 217 215 210 210 203 200 203 202 199 202 207 208 208 209 207 200 201
236 330 329 325 241 352 350 295 281 302 293 294 289 286 286 286 281 276 273 269 268 264 266 266 259 243 236 235 230 224 216 210 213 215 210 209 204 200 205 208 200 206 209 209 210 208 210 202 195
312 315 314 302 323 320 304 281 292 296 294 285 288 289 285 284 284 285 277 273 266 264 262 262 262 257 240 238 237 218 215 209 209 216 213 211 203 198 206 209 208 206 204 210 212 210 203 206 199
305 288 287 288 297 299 285 291 291 291 287 283 280 289 299 295 295 291 285 277 273 267 263 263 261 259 249 235 228 226 216 209 206 213 216 209 203 201 206 211 208 203 207 214 208 207 207 198 207
275 276 276 272 294 315 295 293 285 276 270 288 289 287 283 277 287 296 287 282 275 274 270 267 267 259 255 245 234 232 222 217 206 209 211 207 208 205 209 211 203 204 205 209 209 209 203 207 210
281 274 297 291 318 277 342 286 277 321 288 276 290 290 289 303 288 299 296 291 291 290 290 286 275 261 255 258 238 215 224 221 206 203 200 202 207 209 213 210 205 206 207 212 212 214 216 215 203
292 357 322 305 327 275 60 292 266 259 272 289 300 335 330 314 293 289 281 285 285 290 286 277 276 276 267 254 253 224 210 204 203 201 201 205 209 210 212 208 205 209 211 213 215 216 219 219 206
250 341 301 283 278 305 255 246 271 301 302 307 326 320 322 320 311 291 294 288 289 283 283 286 277 270 261 259 253 248 216 208 207 201 202 205 210 209 206 205 206 211 213 214 215 214 216 213 217
286 293 287 277 196 270 239 167 295 304 307 310 303 314 338 334 329 320 310 304 295 288 285 283 273 268 270 264 255 248 236 207 199 198 203 207 208 207 203 205 208 213 213 213 213 212 214 214 211
145 332 322 348 341 232 324 330 254 282 298 313 301 1 340 327 319 314 309 303 293 287 281 275 267 271 266 265 250 245 244 212 207 205 208 214 207 203 203 205 207 210 212 212 216 205 215 213 209
319 312 183 276 300 297 296 239 256 307 301 321 355 337 332 318 316 308 307 300 297 292 285 281 270 263 257 255 248 241 237 231 206 212 218 218 210 204 205 203 205 208 209 210 208 200 199 204 200
99 202 353 305 249 270 242 266 308 280 296 345 332 327 313 318 312 319 312 303 300 292 286 278 271 262 254 246 242 235 237 226 209 207 216 214 208 205 203 204 201 203 203 202 199 194 189 192 190
223 14 36 292 302 300 284 295 251 302 316 317 316 320 322 314 319 321 312 307 303 297 291 283 270 263 256 248 241 228 229 219 211 204 205 212 209 204 198 199 196 196 195 196 198 190 188 192 192
161 235 200 217 210 250 297 289 208 285 302 308 323 320 320 323 324 314 313 310 307 302 298 295 287 271 254 239 233 220 215 210 204 206 211 206 205 201 197 196 195 194 195 197 201 198 191 199 207
268 232 253 152 264 240 297 271 288 268 283 334 313 315 323 324 321 318 314 313 311 309 314 307 290 279 240 227 210 211 202 200 201 204 212 204 203 195 196 194 194 193 194 194 196 195 197 207 202